Location: Newark
(48.8604°N, 2.3376°E)
Time: 22:06:22
(UTC+00:00)

XW-2C - Pass Details

Date: 16 December 2021
Orbit: 503 x 523 km, 97.5° (Epoch: 19 January)

Event Time Altitude Azimuth Distance (km) Brightness Sun altitude
Rises 05:21:29 0° 21° (NNE) 2,671 ? -21.3°
Reaches altitude 10° 05:23:46 10° 31° (NNE) 1,774 ? -20.9°
Maximum altitude 05:27:14 32° 96° (E) 911 ? -20.4°
Drops below altitude 10° 05:30:40 10° 161° (SSE) 1,752 ? -19.8°
Sets 05:32:54 0° 172° (S) 2,631 ? -19.5°
